Voltar ao catálogo

SL-8 DEB *

AtivoLEO
NORAD 14801·DEBRIS·🇷🇺 Russia

Lançado Nov 28, 1975 de Plesetsk Cosmodrome

Loading…

Próximas Passagens (próximas 24 horas)

TLE

AtualizadoSource: Space-Track

Época: Sep 14, 2026, 06:00 UTC

1 14801U 75112D   26257.25059509  .00001287  00000-0  23135-3 0  9992
2 14801  74.0568 298.9263 0004723 144.9362 332.3068 14.67746430501362

Acompanhe SL-8 DEB * em tempo real com AllMySat

Download on the App Store